Time,TemperatureF,DewpointF,PressureIn,WindDirection,WindDirectionDegrees,WindSpeedMPH,WindSpeedGustMPH,Humidity,HourlyPrecipIn,Conditions,Clouds,dailyrainin,SoftwareType,DateUTC
2017-05-23 00:03:00,61.7,58.0,29.95,ESE,113,1.0,-999.0,88,0.00,,,0.00,,2017-05-23 05:03:00,
2017-05-23 00:09:00,61.7,58.0,29.95,NNE,23,0.0,-999.0,88,0.00,,,0.00,,2017-05-23 05:09:00,
2017-05-23 00:14:00,61.3,58.0,29.95,ESE,113,0.0,-999.0,90,0.00,,,0.00,,2017-05-23 05:14:00,
2017-05-23 00:20:00,61.3,58.0,29.94,SE,135,0.0,-999.0,90,0.00,,,0.00,,2017-05-23 05:20:00,
2017-05-23 00:25:00,61.0,58.0,29.94,WNW,293,0.0,-999.0,90,0.00,,,0.00,,2017-05-23 05:25:00,
2017-05-23 00:31:00,60.5,57.0,29.95,NNW,338,0.0,-999.0,91,0.00,,,0.00,,2017-05-23 05:31:00,
2017-05-23 00:36:00,60.2,57.0,29.94,NNW,338,0.0,-999.0,91,0.00,,,0.00,,2017-05-23 05:36:00,
2017-05-23 00:41:00,60.0,57.0,29.94,NW,315,0.0,-999.0,91,0.00,,,0.00,,2017-05-23 05:41:00,
2017-05-23 00:47:00,59.9,57.0,29.94,NW,315,0.0,-999.0,91,0.00,,,0.00,,2017-05-23 05:47:00,
2017-05-23 00:52:00,59.7,57.0,29.94,NNW,338,0.0,-999.0,93,0.00,,,0.00,,2017-05-23 05:52:00,
2017-05-23 00:58:00,59.4,57.0,29.93,NNE,23,0.0,-999.0,93,0.00,,,0.00,,2017-05-23 05:58:00,
2017-05-23 01:03:00,59.2,57.0,29.94,WNW,293,0.0,-999.0,93,0.00,,,0.00,,2017-05-23 06:03:00,
2017-05-23 01:09:00,59.2,57.0,29.93,NW,315,0.0,-999.0,93,0.00,,,0.00,,2017-05-23 06:09:00,
2017-05-23 01:14:00,58.8,57.0,29.93,NNW,338,0.0,-999.0,93,0.00,,,0.00,,2017-05-23 06:14:00,
2017-05-23 01:20:00,58.5,57.0,29.93,NW,315,0.0,-999.0,95,0.00,,,0.00,,2017-05-23 06:20:00,
2017-05-23 01:26:00,58.8,57.0,29.94,NNW,338,0.0,-999.0,96,0.00,,,0.00,,2017-05-23 06:26:00,
2017-05-23 01:31:00,59.2,58.0,29.93,WNW,293,0.0,-999.0,96,0.00,,,0.00,,2017-05-23 06:31:00,
2017-05-23 01:37:00,59.4,58.0,29.93,NNW,338,0.0,-999.0,96,0.00,,,0.00,,2017-05-23 06:37:00,
2017-05-23 01:42:00,59.7,58.0,29.93,WNW,293,0.0,-999.0,96,0.00,,,0.00,,2017-05-23 06:42:00,
2017-05-23 01:48:00,59.7,58.0,29.94,North,0,0.0,-999.0,96,0.00,,,0.00,,2017-05-23 06:48:00,
2017-05-23 01:53:00,59.7,58.0,29.94,WNW,293,2.0,-999.0,96,0.00,,,0.00,,2017-05-23 06:53:00,
2017-05-23 01:58:00,59.9,59.0,29.93,West,270,2.0,-999.0,96,0.00,,,0.00,,2017-05-23 06:58:00,
2017-05-23 02:04:00,59.9,59.0,29.93,SW,225,0.0,-999.0,96,0.00,,,0.00,,2017-05-23 07:04:00,
2017-05-23 02:09:00,60.0,59.0,29.93,SW,225,0.0,-999.0,96,0.00,,,0.00,,2017-05-23 07:09:00,
2017-05-23 02:15:00,60.2,59.0,29.93,West,270,0.0,-999.0,96,0.00,,,0.00,,2017-05-23 07:15:00,
2017-05-23 02:21:00,60.2,59.0,29.93,South,180,0.0,-999.0,96,0.00,,,0.00,,2017-05-23 07:21:00,
2017-05-23 02:26:00,60.3,59.0,29.92,West,270,0.0,-999.0,96,0.00,,,0.00,,2017-05-23 07:26:00,
2017-05-23 02:32:00,60.3,59.0,29.92,NNW,338,1.0,-999.0,96,0.00,,,0.00,,2017-05-23 07:32:00,
2017-05-23 02:37:00,60.2,59.0,29.93,NW,315,1.0,-999.0,96,0.00,,,0.00,,2017-05-23 07:37:00,
2017-05-23 02:43:00,60.2,59.0,29.92,NW,315,1.0,-999.0,96,0.00,,,0.00,,2017-05-23 07:43:00,
2017-05-23 02:48:00,60.3,59.0,29.92,NNE,23,0.0,-999.0,96,0.00,,,0.00,,2017-05-23 07:48:00,
2017-05-23 02:53:00,60.3,59.0,29.91,NE,45,0.0,-999.0,96,0.00,,,0.00,,2017-05-23 07:53:00,
2017-05-23 02:59:00,60.3,59.0,29.91,ENE,68,0.0,-999.0,96,0.00,,,0.00,,2017-05-23 07:59:00,
2017-05-23 03:04:00,60.2,59.0,29.91,NNE,23,0.0,-999.0,96,0.00,,,0.00,,2017-05-23 08:04:00,
2017-05-23 03:10:00,60.2,58.0,29.91,SE,135,0.0,-999.0,95,0.00,,,0.00,,2017-05-23 08:10:00,
2017-05-23 03:15:00,60.2,58.0,29.91,SSE,158,0.0,-999.0,95,0.00,,,0.00,,2017-05-23 08:15:00,
2017-05-23 03:21:00,60.2,58.0,29.90,SSE,158,0.0,-999.0,95,0.00,,,0.00,,2017-05-23 08:21:00,
2017-05-23 03:26:00,59.9,58.0,29.89,SE,135,0.0,-999.0,95,0.00,,,0.00,,2017-05-23 08:26:00,
2017-05-23 03:32:00,59.9,58.0,29.89,SSE,158,1.0,-999.0,95,0.00,,,0.00,,2017-05-23 08:32:00,
2017-05-23 03:37:00,59.7,58.0,29.88,SE,135,3.0,-999.0,96,0.00,,,0.00,,2017-05-23 08:37:00,
2017-05-23 03:43:00,59.7,58.0,29.87,ESE,113,0.0,-999.0,96,0.00,,,0.00,,2017-05-23 08:43:00,
2017-05-23 03:48:00,59.4,58.0,29.88,SW,225,0.0,-999.0,96,0.00,,,0.00,,2017-05-23 08:48:00,
2017-05-23 03:54:00,59.4,58.0,29.90,WNW,293,1.0,-999.0,96,0.00,,,0.00,,2017-05-23 08:54:00,
2017-05-23 03:59:00,59.4,58.0,29.90,West,270,0.0,-999.0,96,0.00,,,0.00,,2017-05-23 08:59:00,
2017-05-23 04:05:00,59.4,58.0,29.90,NW,315,1.0,-999.0,96,0.00,,,0.00,,2017-05-23 09:05:00,
2017-05-23 04:10:00,59.4,58.0,29.90,NNW,338,0.0,-999.0,96,0.00,,,0.00,,2017-05-23 09:10:00,
2017-05-23 04:16:00,59.3,58.0,29.90,WNW,293,0.0,-999.0,96,0.00,,,0.00,,2017-05-23 09:16:00,
2017-05-23 04:21:00,59.3,58.0,29.89,NNW,338,2.0,-999.0,96,0.00,,,0.00,,2017-05-23 09:21:00,
2017-05-23 04:27:00,59.3,58.0,29.90,WNW,293,2.0,-999.0,96,0.00,,,0.00,,2017-05-23 09:27:00,
2017-05-23 04:32:00,59.3,58.0,29.89,NW,315,1.0,-999.0,96,0.00,,,0.00,,2017-05-23 09:32:00,
2017-05-23 04:38:00,59.3,58.0,29.89,NNW,338,2.0,-999.0,96,0.00,,,0.00,,2017-05-23 09:38:00,
2017-05-23 04:44:00,59.2,58.0,29.88,North,0,0.0,-999.0,96,0.00,,,0.00,,2017-05-23 09:44:00,
2017-05-23 04:49:00,59.2,58.0,29.88,NNW,338,0.0,-999.0,96,0.00,,,0.00,,2017-05-23 09:49:00,
2017-05-23 04:55:00,59.2,58.0,29.87,ENE,68,0.0,-999.0,96,0.00,,,0.00,,2017-05-23 09:55:00,
2017-05-23 05:00:00,59.2,58.0,29.87,SSE,158,0.0,-999.0,96,0.00,,,0.00,,2017-05-23 10:00:00,
2017-05-23 05:06:00,59.2,58.0,29.88,West,270,0.0,-999.0,96,0.00,,,0.00,,2017-05-23 10:06:00,
2017-05-23 05:11:00,59.0,58.0,29.89,West,270,0.0,-999.0,96,0.00,,,0.00,,2017-05-23 10:11:00,
2017-05-23 05:16:00,59.0,58.0,29.90,West,270,0.0,-999.0,96,0.00,,,0.00,,2017-05-23 10:16:00,
2017-05-23 05:22:00,59.0,58.0,29.89,NNE,23,0.0,-999.0,96,0.00,,,0.00,,2017-05-23 10:22:00,
2017-05-23 05:27:00,59.0,58.0,29.89,ESE,113,0.0,-999.0,96,0.00,,,0.00,,2017-05-23 10:27:00,
2017-05-23 05:33:00,58.8,57.0,29.88,SE,135,2.0,-999.0,96,0.00,,,0.00,,2017-05-23 10:33:00,
2017-05-23 05:38:00,59.0,58.0,29.89,WNW,293,0.0,-999.0,96,0.00,,,0.00,,2017-05-23 10:38:00,
2017-05-23 05:44:00,59.0,58.0,29.89,SW,225,0.0,-999.0,96,0.00,,,0.00,,2017-05-23 10:44:00,
2017-05-23 05:49:00,58.8,57.0,29.89,NE,45,0.0,-999.0,96,0.00,,,0.00,,2017-05-23 10:49:00,
2017-05-23 05:55:00,58.8,57.0,29.89,NNE,23,0.0,-999.0,96,0.00,,,0.00,,2017-05-23 10:55:00,
2017-05-23 06:00:00,58.8,57.0,29.89,SW,225,0.0,-999.0,96,0.00,,,0.00,,2017-05-23 11:00:00,
2017-05-23 06:05:00,58.5,57.0,29.90,West,270,0.0,-999.0,96,0.00,,,0.00,,2017-05-23 11:05:00,
2017-05-23 06:11:00,58.4,57.0,29.89,WNW,293,0.0,-999.0,96,0.00,,,0.00,,2017-05-23 11:11:00,
2017-05-23 06:16:00,58.5,57.0,29.90,NNE,23,0.0,-999.0,96,0.00,,,0.00,,2017-05-23 11:16:00,
2017-05-23 06:22:00,58.5,57.0,29.90,NNW,338,0.0,-999.0,96,0.00,,,0.00,,2017-05-23 11:22:00,
2017-05-23 06:27:00,58.5,57.0,29.90,WNW,293,0.0,-999.0,96,0.00,,,0.00,,2017-05-23 11:27:00,
2017-05-23 06:33:00,58.5,57.0,29.90,West,270,0.0,-999.0,96,0.00,,,0.00,,2017-05-23 11:33:00,
2017-05-23 06:39:00,58.5,57.0,29.91,East,90,0.0,-999.0,96,0.00,,,0.00,,2017-05-23 11:39:00,
2017-05-23 06:44:00,58.5,57.0,29.91,NNW,338,0.0,-999.0,96,0.00,,,0.00,,2017-05-23 11:44:00,
2017-05-23 06:50:00,58.8,57.0,29.91,North,0,2.0,-999.0,96,0.00,,,0.00,,2017-05-23 11:50:00,
2017-05-23 06:55:00,59.0,58.0,29.91,WNW,293,0.0,-999.0,98,0.00,,,0.00,,2017-05-23 11:55:00,
2017-05-23 07:00:00,59.0,58.0,29.91,WNW,293,2.0,-999.0,98,0.00,,,0.00,,2017-05-23 12:00:00,
2017-05-23 07:06:00,59.2,58.0,29.92,SE,135,0.0,-999.0,98,0.00,,,0.00,,2017-05-23 12:06:00,
2017-05-23 07:11:00,59.3,58.0,29.92,NW,315,0.0,-999.0,98,0.00,,,0.00,,2017-05-23 12:11:00,
2017-05-23 07:18:00,59.4,58.0,29.92,WNW,293,0.0,-999.0,98,0.00,,,0.00,,2017-05-23 12:18:00,
2017-05-23 07:23:00,59.7,59.0,29.92,West,270,1.0,-999.0,98,0.00,,,0.00,,2017-05-23 12:23:00,
2017-05-23 07:28:00,59.9,59.0,29.92,SW,225,0.0,-999.0,98,0.00,,,0.00,,2017-05-23 12:28:00,
2017-05-23 07:34:00,60.3,59.0,29.92,SSW,203,0.0,-999.0,98,0.00,,,0.00,,2017-05-23 12:34:00,
2017-05-23 07:39:00,60.7,59.0,29.93,WNW,293,0.0,-999.0,96,0.00,,,0.00,,2017-05-23 12:39:00,
2017-05-23 07:45:00,61.0,59.0,29.93,WSW,248,0.0,-999.0,96,0.00,,,0.00,,2017-05-23 12:45:00,
2017-05-23 07:50:00,61.1,60.0,29.93,WNW,293,1.0,-999.0,96,0.00,,,0.00,,2017-05-23 12:50:00,
2017-05-23 07:56:00,61.1,60.0,29.93,NNW,338,0.0,-999.0,96,0.00,,,0.00,,2017-05-23 12:56:00,
2017-05-23 08:01:00,61.1,60.0,29.93,NNW,338,1.0,-999.0,96,0.00,,,0.00,,2017-05-23 13:01:00,
2017-05-23 08:07:00,61.5,60.0,29.93,NW,315,1.0,-999.0,96,0.00,,,0.00,,2017-05-23 13:07:00,
2017-05-23 08:13:00,61.7,60.0,29.93,NNE,23,0.0,-999.0,96,0.00,,,0.00,,2017-05-23 13:13:00,
2017-05-23 08:19:00,62.2,61.0,29.93,WNW,293,0.0,-999.0,96,0.00,,,0.00,,2017-05-23 13:19:00,
2017-05-23 08:24:00,62.5,60.0,29.92,NW,315,0.0,-999.0,91,0.00,,,0.00,,2017-05-23 13:24:00,
2017-05-23 08:30:00,62.7,60.0,29.92,West,270,0.0,-999.0,91,0.00,,,0.00,,2017-05-23 13:30:00,
2017-05-23 08:35:00,63.4,60.0,29.91,WSW,248,2.0,-999.0,91,0.00,,,0.00,,2017-05-23 13:35:00,
2017-05-23 08:41:00,63.9,60.0,29.92,WNW,293,4.0,-999.0,90,0.00,,,0.00,,2017-05-23 13:41:00,
2017-05-23 08:46:00,63.9,60.0,29.91,NW,315,1.0,-999.0,88,0.00,,,0.00,,2017-05-23 13:46:00,
2017-05-23 08:52:00,63.9,60.0,29.92,NNW,338,3.0,-999.0,88,0.00,,,0.00,,2017-05-23 13:52:00,
2017-05-23 08:57:00,63.4,60.0,29.92,NNW,338,3.0,-999.0,91,0.00,,,0.00,,2017-05-23 13:57:00,
2017-05-23 09:03:00,63.4,60.0,29.92,WNW,293,1.0,-999.0,90,0.00,,,0.00,,2017-05-23 14:03:00,
2017-05-23 09:08:00,63.6,61.0,29.92,North,0,2.0,-999.0,91,0.00,,,0.00,,2017-05-23 14:08:00,
2017-05-23 09:14:00,63.6,61.0,29.92,NW,315,3.0,-999.0,91,0.00,,,0.00,,2017-05-23 14:14:00,
2017-05-23 09:19:00,64.4,61.0,29.92,West,270,2.0,-999.0,90,0.00,,,0.00,,2017-05-23 14:19:00,
2017-05-23 09:25:00,65.5,61.0,29.92,NNE,23,3.0,-999.0,88,0.00,,,0.00,,2017-05-23 14:25:00,
2017-05-23 09:30:00,65.6,61.0,29.91,NNE,23,2.0,-999.0,86,0.00,,,0.00,,2017-05-23 14:30:00,
2017-05-23 09:36:00,65.2,61.0,29.91,NNE,23,2.0,-999.0,86,0.00,,,0.00,,2017-05-23 14:36:00,
2017-05-23 09:41:00,65.5,61.0,29.90,NNE,23,2.0,-999.0,86,0.00,,,0.00,,2017-05-23 14:41:00,
2017-05-23 09:47:00,65.8,61.0,29.90,WNW,293,3.0,-999.0,85,0.00,,,0.00,,2017-05-23 14:47:00,
2017-05-23 09:52:00,67.3,62.0,29.90,WSW,248,2.0,-999.0,83,0.00,,,0.00,,2017-05-23 14:52:00,
2017-05-23 09:58:00,68.1,62.0,29.90,SW,225,4.0,-999.0,81,0.00,,,0.00,,2017-05-23 14:58:00,
2017-05-23 10:03:00,67.6,62.0,29.90,NNE,23,2.0,-999.0,83,0.00,,,0.00,,2017-05-23 15:03:00,
2017-05-23 10:08:00,68.4,62.0,29.91,NW,315,7.0,-999.0,81,0.00,,,0.00,,2017-05-23 15:08:00,
2017-05-23 10:14:00,68.4,62.0,29.92,NW,315,4.0,-999.0,81,0.00,,,0.00,,2017-05-23 15:14:00,
2017-05-23 10:19:00,68.0,62.0,29.92,North,0,1.0,-999.0,81,0.00,,,0.00,,2017-05-23 15:19:00,
2017-05-23 10:25:00,69.0,63.0,29.91,NNE,23,2.0,-999.0,81,0.00,,,0.00,,2017-05-23 15:25:00,
2017-05-23 10:30:00,70.6,63.0,29.91,North,0,3.0,-999.0,78,0.00,,,0.00,,2017-05-23 15:30:00,
2017-05-23 10:36:00,71.4,63.0,29.91,NNE,23,2.0,-999.0,75,0.00,,,0.00,,2017-05-23 15:36:00,
2017-05-23 10:41:00,71.5,63.0,29.91,NNE,23,5.0,-999.0,75,0.00,,,0.00,,2017-05-23 15:41:00,
2017-05-23 10:47:00,71.9,64.0,29.91,SSW,203,1.0,-999.0,75,0.00,,,0.00,,2017-05-23 15:47:00,
2017-05-23 10:52:00,71.0,63.0,29.91,NNW,338,2.0,-999.0,75,0.00,,,0.00,,2017-05-23 15:52:00,
2017-05-23 10:58:00,70.9,63.0,29.91,NW,315,3.0,-999.0,76,0.00,,,0.00,,2017-05-23 15:58:00,
2017-05-23 11:03:00,71.1,63.0,29.91,NNW,338,4.0,-999.0,76,0.00,,,0.00,,2017-05-23 16:03:00,
2017-05-23 11:09:00,70.9,63.0,29.91,NW,315,2.0,-999.0,76,0.00,,,0.00,,2017-05-23 16:09:00,
2017-05-23 11:14:00,71.4,63.0,29.91,NE,45,4.0,-999.0,76,0.00,,,0.00,,2017-05-23 16:14:00,
2017-05-23 11:20:00,72.1,64.0,29.90,West,270,3.0,-999.0,75,0.00,,,0.00,,2017-05-23 16:20:00,
2017-05-23 11:25:00,73.0,64.0,29.90,NNE,23,2.0,-999.0,74,0.00,,,0.00,,2017-05-23 16:25:00,
2017-05-23 11:31:00,73.0,64.0,29.90,North,0,3.0,-999.0,74,0.00,,,0.00,,2017-05-23 16:31:00,
2017-05-23 11:36:00,73.0,64.0,29.90,NNW,338,2.0,-999.0,74,0.00,,,0.00,,2017-05-23 16:36:00,
2017-05-23 11:42:00,72.8,64.0,29.89,WNW,293,3.0,-999.0,74,0.00,,,0.00,,2017-05-23 16:42:00,
2017-05-23 11:48:00,72.5,64.0,29.89,West,270,2.0,-999.0,75,0.00,,,0.00,,2017-05-23 16:48:00,
2017-05-23 11:53:00,72.5,64.0,29.89,NNW,338,4.0,-999.0,75,0.00,,,0.00,,2017-05-23 16:53:00,
2017-05-23 11:59:00,72.3,64.0,29.89,NW,315,4.0,-999.0,75,0.00,,,0.00,,2017-05-23 16:59:00,
2017-05-23 12:04:00,73.4,64.0,29.89,WNW,293,6.0,-999.0,75,0.00,,,0.00,,2017-05-23 17:04:00,
2017-05-23 12:10:00,73.5,64.0,29.88,West,270,3.0,-999.0,74,0.00,,,0.00,,2017-05-23 17:10:00,
2017-05-23 12:15:00,74.6,65.0,29.88,North,0,6.0,-999.0,74,0.00,,,0.00,,2017-05-23 17:15:00,
2017-05-23 12:21:00,74.4,64.0,29.88,NNW,338,4.0,-999.0,71,0.00,,,0.00,,2017-05-23 17:21:00,
2017-05-23 12:26:00,74.8,64.0,29.88,West,270,3.0,-999.0,70,0.00,,,0.00,,2017-05-23 17:26:00,
2017-05-23 12:31:00,74.8,65.0,29.88,NW,315,3.0,-999.0,71,0.00,,,0.00,,2017-05-23 17:31:00,
2017-05-23 12:37:00,75.0,65.0,29.88,WSW,248,3.0,-999.0,73,0.00,,,0.00,,2017-05-23 17:37:00,
2017-05-23 12:42:00,76.4,66.0,29.88,SW,225,2.0,-999.0,70,0.00,,,0.00,,2017-05-23 17:42:00,
2017-05-23 12:48:00,78.1,66.0,29.88,WSW,248,2.0,-999.0,66,0.00,,,0.00,,2017-05-23 17:48:00,
2017-05-23 12:53:00,77.5,66.0,29.87,West,270,3.0,-999.0,68,0.00,,,0.00,,2017-05-23 17:53:00,
2017-05-23 12:59:00,79.0,65.0,29.87,NNW,338,2.0,-999.0,63,0.00,,,0.00,,2017-05-23 17:59:00,
2017-05-23 13:04:00,78.4,65.0,29.87,South,180,2.0,-999.0,63,0.00,,,0.00,,2017-05-23 18:04:00,
2017-05-23 13:09:00,79.4,65.0,29.86,ESE,113,1.0,-999.0,61,0.00,,,0.00,,2017-05-23 18:09:00,
2017-05-23 13:15:00,79.0,66.0,29.86,ESE,113,1.0,-999.0,65,0.00,,,0.00,,2017-05-23 18:15:00,
2017-05-23 13:20:00,78.4,66.0,29.86,NNE,23,4.0,-999.0,66,0.00,,,0.00,,2017-05-23 18:20:00,
2017-05-23 13:26:00,79.6,67.0,29.85,NNE,23,5.0,-999.0,65,0.00,,,0.00,,2017-05-23 18:26:00,
2017-05-23 13:32:00,79.1,65.0,29.85,ENE,68,3.0,-999.0,63,0.00,,,0.00,,2017-05-23 18:32:00,
2017-05-23 13:37:00,79.0,65.0,29.84,NW,315,3.0,-999.0,63,0.00,,,0.00,,2017-05-23 18:37:00,
2017-05-23 13:43:00,79.1,65.0,29.84,West,270,3.0,-999.0,61,0.00,,,0.00,,2017-05-23 18:43:00,
2017-05-23 13:49:00,77.4,65.0,29.84,NW,315,2.0,-999.0,66,0.00,,,0.00,,2017-05-23 18:49:00,
2017-05-23 13:54:00,79.0,65.0,29.84,NNE,23,2.0,-999.0,63,0.00,,,0.00,,2017-05-23 18:54:00,
2017-05-23 14:00:00,76.5,65.0,29.84,NW,315,2.0,-999.0,69,0.00,,,0.00,,2017-05-23 19:00:00,
2017-05-23 14:05:00,77.5,64.0,29.84,West,270,2.0,-999.0,65,0.00,,,0.00,,2017-05-23 19:05:00,
2017-05-23 14:10:00,79.3,64.0,29.84,WNW,293,7.0,-999.0,61,0.00,,,0.00,,2017-05-23 19:10:00,
2017-05-23 14:15:00,77.5,63.0,29.84,NNE,23,3.0,-999.0,63,0.00,,,0.00,,2017-05-23 19:15:00,
2017-05-23 14:21:00,77.1,64.0,29.84,NNE,23,2.0,-999.0,63,0.00,,,0.00,,2017-05-23 19:21:00,
2017-05-23 14:26:00,76.5,64.0,29.84,SW,225,5.0,-999.0,65,0.00,,,0.00,,2017-05-23 19:26:00,
2017-05-23 14:32:00,77.5,64.0,29.84,SSE,158,1.0,-999.0,63,0.00,,,0.00,,2017-05-23 19:32:00,
2017-05-23 14:37:00,76.5,63.0,29.84,WNW,293,4.0,-999.0,65,0.00,,,0.00,,2017-05-23 19:37:00,
2017-05-23 14:43:00,76.9,64.0,29.83,NW,315,2.0,-999.0,65,0.00,,,0.00,,2017-05-23 19:43:00,
2017-05-23 14:48:00,77.4,64.0,29.83,NNW,338,2.0,-999.0,63,0.00,,,0.00,,2017-05-23 19:48:00,
2017-05-23 14:54:00,80.1,63.0,29.82,South,180,2.0,-999.0,56,0.00,,,0.00,,2017-05-23 19:54:00,
2017-05-23 14:59:00,80.1,63.0,29.82,WSW,248,4.0,-999.0,56,0.00,,,0.00,,2017-05-23 19:59:00,
2017-05-23 15:04:00,81.0,64.0,29.81,WNW,293,5.0,-999.0,58,0.00,,,0.00,,2017-05-23 20:04:00,
2017-05-23 15:10:00,80.1,62.0,29.81,West,270,2.0,-999.0,55,0.00,,,0.00,,2017-05-23 20:10:00,
2017-05-23 15:15:00,80.5,64.0,29.81,SSW,203,5.0,-999.0,58,0.00,,,0.00,,2017-05-23 20:15:00,
2017-05-23 15:21:00,79.3,64.0,29.81,South,180,2.0,-999.0,60,0.00,,,0.00,,2017-05-23 20:21:00,
2017-05-23 15:26:00,81.7,64.0,29.80,NNW,338,2.0,-999.0,55,0.00,,,0.00,,2017-05-23 20:26:00,
2017-05-23 15:32:00,82.6,63.0,29.80,South,180,1.0,-999.0,53,0.00,,,0.00,,2017-05-23 20:32:00,
2017-05-23 15:37:00,81.4,63.0,29.81,South,180,1.0,-999.0,54,0.00,,,0.00,,2017-05-23 20:37:00,
2017-05-23 15:43:00,80.5,63.0,29.80,SW,225,3.0,-999.0,55,0.00,,,0.00,,2017-05-23 20:43:00,
2017-05-23 15:48:00,80.1,62.0,29.80,WNW,293,2.0,-999.0,55,0.00,,,0.00,,2017-05-23 20:48:00,
2017-05-23 15:54:00,79.1,63.0,29.79,WNW,293,2.0,-999.0,58,0.00,,,0.00,,2017-05-23 20:54:00,
2017-05-23 15:59:00,80.1,64.0,29.79,SSW,203,3.0,-999.0,58,0.00,,,0.00,,2017-05-23 20:59:00,
2017-05-23 16:05:00,79.4,64.0,29.79,WNW,293,1.0,-999.0,61,0.00,,,0.00,,2017-05-23 21:05:00,
2017-05-23 16:10:00,79.3,64.0,29.78,WNW,293,2.0,-999.0,61,0.00,,,0.00,,2017-05-23 21:10:00,
2017-05-23 16:16:00,80.3,64.0,29.78,West,270,2.0,-999.0,58,0.00,,,0.00,,2017-05-23 21:16:00,
2017-05-23 16:21:00,79.1,64.0,29.78,WSW,248,3.0,-999.0,60,0.00,,,0.00,,2017-05-23 21:21:00,
2017-05-23 16:27:00,76.8,63.0,29.78,WNW,293,2.0,-999.0,63,0.00,,,0.00,,2017-05-23 21:27:00,
2017-05-23 16:33:00,75.5,61.0,29.79,NE,45,7.0,-999.0,61,0.00,,,0.00,,2017-05-23 21:33:00,
2017-05-23 16:38:00,72.3,58.0,29.80,NNE,23,7.0,-999.0,63,0.00,,,0.00,,2017-05-23 21:38:00,
2017-05-23 16:44:00,69.6,58.0,29.80,NNW,338,6.0,-999.0,68,0.00,,,0.00,,2017-05-23 21:44:00,
2017-05-23 16:49:00,68.0,59.0,29.80,SW,225,1.0,-999.0,74,0.00,,,0.00,,2017-05-23 21:49:00,
2017-05-23 16:55:00,66.4,59.0,29.81,WNW,293,3.0,-999.0,79,0.04,,,0.04,,2017-05-23 21:55:00,
2017-05-23 16:59:00,65.5,59.0,29.81,SSE,158,0.0,-999.0,81,0.10,,,0.10,,2017-05-23 21:59:00,
2017-05-23 17:04:00,65.5,60.0,29.81,NW,315,0.0,-999.0,83,0.11,,,0.22,,2017-05-23 22:04:00,
2017-05-23 17:10:00,64.8,59.0,29.80,SE,135,0.0,-999.0,83,0.12,,,0.23,,2017-05-23 22:10:00,
2017-05-23 17:15:00,65.0,60.0,29.80,West,270,0.0,-999.0,83,0.12,,,0.23,,2017-05-23 22:15:00,
2017-05-23 17:21:00,65.5,60.0,29.81,SSE,158,0.0,-999.0,85,0.12,,,0.23,,2017-05-23 22:21:00,
2017-05-23 17:26:00,65.2,60.0,29.80,South,180,2.0,-999.0,85,0.12,,,0.23,,2017-05-23 22:26:00,
2017-05-23 17:32:00,64.6,60.0,29.80,SSW,203,0.0,-999.0,88,0.13,,,0.24,,2017-05-23 22:32:00,
2017-05-23 17:37:00,65.2,61.0,29.80,East,90,0.0,-999.0,86,0.13,,,0.24,,2017-05-23 22:37:00,
2017-05-23 17:43:00,65.5,61.0,29.79,SSW,203,0.0,-999.0,88,0.13,,,0.24,,2017-05-23 22:43:00,
2017-05-23 17:49:00,65.2,62.0,29.79,SW,225,0.0,-999.0,90,0.13,,,0.24,,2017-05-23 22:49:00,
2017-05-23 17:54:00,65.6,62.0,29.79,SSW,203,1.0,-999.0,88,0.13,,,0.24,,2017-05-23 22:54:00,
2017-05-23 17:59:00,67.1,63.0,29.79,NNE,23,2.0,-999.0,88,0.00,,,0.24,,2017-05-23 22:59:00,
2017-05-23 18:05:00,68.6,63.0,29.79,West,270,1.0,-999.0,83,0.00,,,0.24,,2017-05-23 23:05:00,
2017-05-23 18:10:00,68.0,63.0,29.79,SSE,158,0.0,-999.0,85,0.00,,,0.24,,2017-05-23 23:10:00,